This is the latest recevied weather packets stored in our database for station/object W1SCW. If no packets are shown the sender has not sent any weather packets the latest 10 day(s).
| Time | Temp. | Humidity | Pressure | Rain* | Wind** | Luminosity | Snow |
|---|---|---|---|---|---|---|---|
| 1777477590 | 27.78° C | 79% | 1011.4 hPa | 0 mm | - | 243 W/m² | - |
| 1777477287 | 27.78° C | 79% | 1011.4 hPa | 0 mm | - | 272 W/m² | - |
| 1777476983 | 27.78° C | 78% | 1011.4 hPa | 0 mm | - | 261 W/m² | - |
| 1777476682 | 27.78° C | 79% | 1011.2 hPa | 0 mm | - | 347 W/m² | - |
| 1777476378 | 27.78° C | 79% | 1011.1 hPa | 0 mm | - | 308 W/m² | - |
| 1777476074 | 27.78° C | 79% | 1011.2 hPa | 0 mm | - | 255 W/m² | - |
| 1777475764 | 27.22° C | 79% | 1011 hPa | 0 mm | - | 272 W/m² | - |
| 1777475461 | 27.78° C | 80% | 1011 hPa | 0 mm | - | 257 W/m² | - |
| 1777475161 | 27.22° C | 81% | 1010.9 hPa | 0 mm | - | 248 W/m² | - |
| 1777474858 | 27.22° C | 81% | 1011 hPa | 0 mm | - | 223 W/m² | - |
| 1777474554 | 27.22° C | 80% | 1011.1 hPa | 0 mm | - | 187 W/m² | - |
| 1777474251 | 27.22° C | 80% | 1011.1 hPa | 0 mm | - | 212 W/m² | - |
| 1777473948 | 27.78° C | 79% | 1011.2 hPa | 0 mm | - | 187 W/m² | - |
| 1777473645 | 27.78° C | 79% | 1010.9 hPa | 0 mm | - | 284 W/m² | - |
| 1777473341 | 27.22° C | 81% | 1011.1 hPa | 0 mm | - | 281 W/m² | - |
| 1777473038 | 27.22° C | 82% | 1011 hPa | 0 mm | - | 220 W/m² | - |
| 1777472734 | 27.22° C | 81% | 1010.7 hPa | 0 mm | - | 253 W/m² | - |
| 1777472431 | 27.22° C | 81% | 1011.1 hPa | 0 mm | - | 367 W/m² | - |
| 1777472129 | 27.22° C | 83% | 1011.1 hPa | 0 mm | - | 217 W/m² | - |
| 1777471828 | 27.22° C | 83% | 1010.8 hPa | 0 mm | - | 278 W/m² | - |
| 1777471526 | 27.22° C | 83% | 1010.8 hPa | 0 mm | - | 411 W/m² | - |
| 1777471222 | 26.67° C | 85% | 1010.3 hPa | 0 mm | - | 295 W/m² | - |
| 1777470919 | 26.67° C | 87% | 1010.5 hPa | 0 mm | - | 370 W/m² | - |
| 1777470616 | 26.67° C | 86% | 1010.5 hPa | 0 mm | - | 225 W/m² | - |
| 1777470312 | 26.67° C | 87% | 1010.5 hPa | 0 mm | - | 358 W/m² | - |
* Rain latest hour (hover to see other rain measurements)
** Current wind speed in m/s (hover to see current wind gust speed)